• Join FlightAware (Why Join?)
  • Login
  • US Flag 
Rudolph Flight #1: Arrived! 
04:54AM EST


 

Airport Tracker/Info


-or-


 

Live Flight TrackerFlight Track Log ✈ DAL268 ✈ 18-Apr-2013 ✈ KJFK - LLBG / TLV

Flight Track Log - Related Links

Times and Time Zones

All times are in EDT time to prevent confusion due to time zone crossing. See the DAL268 flight status page for this flight to view local times or setup timezone preferences in your user account.

Time Position Orientation Groundspeed Altitude Reporting Facility
EDT Latitude Longitude Course Direction KTS MPH feet Rate Location/Type
12:20AM 40.6220 -73.7860 180° South 177 204 200  Level FlightAware
12:21AM 40.6010 -73.8050 214° Southwest 186 214 1,200 1,200 Climbing FlightAware
12:21AM 40.5840 -73.8170 208° Southwest 221 254 1,200 720 Level FlightAware
12:21AM 40.5640 -73.8220 191° South 230 265 1,700 1,860 Climbing FlightAware
12:22AM 40.5370 -73.8180 174° South 237 273 2,600 1,980 Climbing FlightAware
12:22AM 40.5035 -73.7897 147° Southeast 269 310 3,600 1,920 Climbing FlightAware ADS-B
12:22AM 40.4971 -73.7791 128° Southeast 278 320 3,900 2,280 Climbing FlightAware ADS-B
12:22AM 40.4943 -73.7715 116° Southeast 282 325 4,100 2,220 Climbing FlightAware ADS-B
12:23AM 40.4926 -73.7668 115° Southeast 284 327 4,200 1,500 Climbing FlightAware ADS-B
12:23AM 40.4903 -73.7586 110° East 291 335 4,300 1,380 Climbing FlightAware ADS-B
12:23AM 40.4869 -73.7373 102° East 300 345 4,600 1,500 Climbing FlightAware ADS-B
12:23AM 40.4863 -73.7298 96° East 310 357 4,700 720 Climbing FlightAware ADS-B
12:23AM 40.4862 -73.7222 91° East 316 364 4,700 1,500 Level FlightAware ADS-B
12:23AM 40.4870 -73.7065 86° East 323 372 5,000 2,400 Climbing FlightAware ADS-B
12:23AM 40.4890 -73.6929 79° East 325 374 5,300 3,000 Climbing FlightAware ADS-B
12:23AM 40.4922 -73.6797 72° East 325 374 5,700 3,000 Climbing FlightAware ADS-B
12:23AM 40.4965 -73.6670 66° East 327 376 6,000 2,280 Climbing FlightAware ADS-B
12:24AM 40.5012 -73.6566 59° Northeast 332 382 6,200 1,800 Climbing FlightAware ADS-B
12:24AM 40.5049 -73.6500 54° Northeast 333 383 6,300 1,800 Climbing FlightAware ADS-B
12:24AM 40.5110 -73.6407 49° Northeast 337 388 6,500 1,980 Climbing FlightAware ADS-B
12:24AM 40.5179 -73.6325 42° Northeast 340 391 6,700 1,980 Climbing FlightAware ADS-B
12:24AM 40.5219 -73.6287 36° Northeast 340 391 6,800 2,520 Climbing FlightAware ADS-B
12:24AM 40.5270 -73.6240 35° Northeast 339 390 7,000 2,220 Climbing FlightAware ADS-B
12:24AM 40.5322 -73.6196 33° Northeast 339 390 7,100 1,620 Climbing FlightAware ADS-B
12:24AM 40.5419 -73.6124 29° Northeast 341 392 7,300 1,560 Climbing FlightAware ADS-B
12:24AM 40.5646 -73.5967 28° Northeast 352 405 7,700 1,800 Climbing FlightAware ADS-B
12:25AM 40.5797 -73.5867 27° Northeast 354 407 8,100 2,700 Climbing FlightAware ADS-B
12:25AM 40.5947 -73.5778 24° Northeast 350 403 8,600 2,520 Climbing FlightAware ADS-B
12:25AM 40.6176 -73.5654 22° Northeast 347 399 9,200 2,100 Climbing FlightAware ADS-B
12:25AM 40.6406 -73.5537 21° North 353 406 9,700 1,380 Climbing FlightAware ADS-B
12:26AM 40.6891 -73.5283 22° Northeast 374 430 10,300 1,380 Climbing FlightAware ADS-B
12:27AM 40.7780 -73.4790 23° Northeast 403 464 11,700 1,560 Climbing FlightAware
12:27AM 40.8580 -73.4340 23° Northeast 427 491 12,900 1,740 Climbing FlightAware
12:28AM 40.9330 -73.3920 23° Northeast 441 507 14,200 2,160 Climbing FlightAware
12:29AM 41.0125 -73.3477 23° Northeast 447 514 15,800 2,220 Climbing FlightAware ADS-B
12:29AM 41.0970 -73.3000 23° Northeast 454 522 17,400 1,920 Climbing FlightAware
12:30AM 41.1710 -73.2580 23° Northeast 462 532 18,600 1,860 Climbing FlightAware
12:30AM 41.2055 -73.2386 23° Northeast 458 527 19,100 1,620 Climbing FlightAware ADS-B
12:31AM 41.2854 -73.1928 23° Northeast 469 540 20,100 1,560 Climbing FlightAware ADS-B
12:31AM 41.3374 -73.1632 23° Northeast 484 557 20,800 1,560 Climbing FlightAware ADS-B
12:32AM 41.3823 -73.1199 36° Northeast 492 566 21,400 1,500 Climbing FlightAware ADS-B
12:32AM 41.4088 -73.0779 50° Northeast 496 571 21,900 1,440 Climbing FlightAware ADS-B
12:33AM 41.4570 -72.9720 59° Northeast 504 580 22,900 1,440 Climbing FlightAware
12:33AM 41.4969 -72.8802 60° Northeast 502 578 23,700 1,440 Climbing FlightAware ADS-B
12:34AM 41.5580 -72.7380 60° Northeast 517 595 25,000 1,320 Climbing FlightAware
12:35AM 41.6230 -72.6200 54° Northeast 525 604 25,900 1,140 Climbing FlightAware
12:36AM 41.6050 -72.6480 229° Southwest 26,500 1,080 Climbing FlightAware
12:36AM 41.7350 -72.4770 44° Northeast 532 612 27,200 1,320 Climbing FlightAware
12:37AM 41.8100 -72.3820 43° Northeast 536 617 28,100 1,560 Climbing FlightAware
12:38AM 41.9180 -72.2480 43° Northeast 529 609 29,700 1,440 Climbing FlightAware
12:38AM 41.9880 -72.1600 43° Northeast 528 608 30,500 900 Climbing FlightAware
12:39AM 42.0630 -72.0680 42° Northeast 531 611 31,000 300 Climbing FlightAware
12:40AM 42.1390 -71.9700 44° Northeast 531 611 31,000  Level FlightAware
12:41AM 42.2130 -71.8730 44° Northeast 530 610 31,000  Level FlightAware
12:41AM 42.2930 -71.7670 44° Northeast 531 611 31,000  Level FlightAware
12:42AM 42.3680 -71.6700 44° Northeast 533 613 31,000  Level FlightAware
12:43AM 42.4480 -71.5640 44° Northeast 536 617 31,000  Level FlightAware
12:43AM 42.5180 -71.4700 45° Northeast 538 619 31,000  Level FlightAware
12:44AM 42.5870 -71.3780 44° Northeast 541 623 31,000  Level FlightAware
12:45AM 42.6730 -71.2660 44° Northeast 542 624 31,000  Level FlightAware
12:46AM 42.7440 -71.1700 45° Northeast 541 623 31,000  Level FlightAware
12:46AM 42.8260 -71.0600 45° Northeast 541 623 31,000  Level FlightAware
12:47AM 42.8990 -70.9620 45° Northeast 542 624 31,000  Level FlightAware
12:48AM 42.9690 -70.8680 44° Northeast 544 626 31,000  Level FlightAware
12:48AM 43.0480 -70.7610 45° Northeast 546 628 31,000  Level FlightAware
12:49AM 43.1210 -70.6610 45° Northeast 550 633 31,000  Level FlightAware
12:50AM 43.2020 -70.5500 45° Northeast 548 631 31,000  Level FlightAware
12:50AM 43.2750 -70.4500 45° Northeast 546 628 31,000  Level FlightAware
12:51AM 43.3460 -70.3510 45° Northeast 545 627 31,000  Level FlightAware
12:52AM 43.4070 -70.2680 45° Northeast 546 628 31,000  Level FlightAware
12:52AM 43.4890 -70.1540 45° Northeast 548 631 31,000  Level FlightAware
12:53AM 43.5610 -70.0550 45° Northeast 551 634 31,000  Level FlightAware
12:54AM 43.6310 -69.9560 46° Northeast 554 638 31,000  Level FlightAware
12:55AM 43.7110 -69.8430 46° Northeast 553 636 31,000  Level FlightAware
12:55AM 43.7790 -69.7500 45° Northeast 555 639 31,000  Level FlightAware
12:56AM 43.8640 -69.6280 46° Northeast 555 639 31,000  Level FlightAware
12:57AM 43.9370 -69.5260 45° Northeast 555 639 31,000  Level FlightAware
12:57AM 44.0030 -69.4290 47° Northeast 554 638 31,000  Level FlightAware
12:58AM 44.0840 -69.3140 46° Northeast 554 638 31,000  Level FlightAware
12:59AM 44.1460 -69.2270 45° Northeast 553 636 31,000  Level FlightAware
12:59AM 44.2110 -69.1320 46° Northeast 555 639 31,000  Level FlightAware
01:00AM 44.3090 -68.9910 46° Northeast 553 636 31,000  Level FlightAware
01:01AM 44.3840 -68.8830 46° Northeast 555 639 31,000  Level FlightAware
01:02AM 44.4600 -68.7710 46° Northeast 555 639 31,000  Level FlightAware
01:02AM 44.5320 -68.6650 46° Northeast 554 638 31,000  Level FlightAware
01:03AM 44.6140 -68.5450 46° Northeast 553 636 31,000  Level FlightAware
01:04AM 44.6850 -68.4410 46° Northeast 554 638 31,000  Level FlightAware
01:04AM 44.7620 -68.3260 47° Northeast 553 636 31,000  Level FlightAware
01:05AM 44.8330 -68.2210 46° Northeast 554 638 31,000  Level FlightAware
01:06AM 44.9010 -68.1190 47° Northeast 551 634 31,000  Level FlightAware
01:06AM 44.9830 -67.9970 46° Northeast 548 631 31,000  Level FlightAware
01:07AM 45.0490 -67.8980 47° Northeast 546 628 31,000  Level FlightAware
01:08AM 45.1210 -67.7880 47° Northeast 546 628 31,000  Level FlightAware
01:09AM 45.1980 -67.6730 46° Northeast 547 629 31,000  Level FlightAware
01:09AM 45.2660 -67.5680 47° Northeast 545 627 31,000  Level FlightAware
01:10AM 45.3370 -67.4580 47° Northeast 542 624 31,000  Level FlightAware
01:11AM 45.4060 -67.3540 47° Northeast 532 612 31,000  Level FlightAware
01:11AM 45.4810 -67.2370 48° Northeast 529 609 31,000  Level FlightAware
01:12AM 45.5490 -67.1340 47° Northeast 526 605 31,000  Level FlightAware
01:13AM 45.6140 -67.0310 48° Northeast 530 610 31,000  Level FlightAware
01:13AM 45.6890 -66.9150 47° Northeast 525 604 31,000  Level FlightAware
01:14AM 45.7550 -66.8100 48° Northeast 523 602 31,000  Level FlightAware
01:15AM 45.8170 -66.7130 47° Northeast 524 603 31,000  Level FlightAware
01:16AM 45.8950 -66.5920 47° Northeast 525 604 31,000  Level FlightAware
01:16AM 45.9640 -66.4830 48° Northeast 526 605 31,000  Level FlightAware
01:17AM 46.0310 -66.3750 48° Northeast 527 606 31,000  Level FlightAware
01:18AM 46.0920 -66.2780 48° Northeast 527 606 31,000  Level FlightAware
01:18AM 46.1470 -66.1890 48° Northeast 527 606 31,000  Level FlightAware
01:19AM 46.2140 -66.0830 48° Northeast 527 606 31,000  Level FlightAware
01:20AM 46.2690 -65.9930 49° Northeast 527 606 31,000  Level FlightAware
01:20AM 46.3390 -65.8820 48° Northeast 527 606 31,000  Level FlightAware
01:21AM 46.3940 -65.7930 48° Northeast 527 606 31,000  Level FlightAware
01:22AM 46.4500 -65.7030 48° Northeast 527 606 31,000  Level FlightAware
01:22AM 46.5050 -65.6140 48° Northeast 527 606 31,000  Level FlightAware
01:23AM 46.5610 -65.5240 48° Northeast 527 606 31,000  Level FlightAware
01:24AM 46.6300 -65.4120 48° Northeast 527 606 31,000  Level FlightAware
01:25AM 46.6850 -65.3220 48° Northeast 527 606 31,000  Level FlightAware
01:25AM 46.7410 -65.2330 47° Northeast 527 606 31,000  Level FlightAware
01:26AM 46.7960 -65.1430 48° Northeast 527 606 31,000  Level FlightAware
01:26AM 46.9333 -64.8667 48° Northeast 530 610 31,000  Level Moncton Center
01:27AM 47.0333 -64.7167 46° Northeast 530 610 31,000  Level Moncton Center
01:28AM 47.1333 -64.5500 49° Northeast 530 610 31,000  Level Moncton Center
01:29AM 47.2167 -64.3667 56° Northeast 530 610 31,000  Level Moncton Center
01:30AM 47.3167 -64.2167 45° Northeast 530 610 31,000  Level Moncton Center
01:31AM 47.4167 -64.0500 48° Northeast 540 621 31,000  Level Moncton Center
01:32AM 47.5167 -63.8833 48° Northeast 540 621 31,000  Level Moncton Center
01:33AM 47.6167 -63.7000 51° Northeast 530 610 31,000  Level Moncton Center
01:34AM 47.7000 -63.5333 53° Northeast 530 610 31,000  Level Moncton Center
01:35AM 47.8000 -63.3500 51° Northeast 530 610 31,000 180 Level Moncton Center
01:36AM 47.9000 -63.2000 45° Northeast 530 610 31,400 360 Climbing Moncton Center
01:37AM 48.0000 -63.0167 51° Northeast 540 621 31,800 300 Climbing Moncton Center
01:38AM 48.0833 -62.8500 53° Northeast 530 610 32,000 60 Climbing Moncton Center
01:39AM 48.1667 -62.6833 53° Northeast 540 621 32,000  Level Moncton Center
01:40AM 48.2000 -62.6167 53° Northeast 530 610 32,000  Level Gander Center
01:40AM 48.2667 -62.5167 45° Northeast 530 610 32,000  Level Moncton Center
01:41AM 48.3667 -62.3500 48° Northeast 530 610 32,000  Level Moncton Center
01:42AM 48.4500 -62.1500 58° Northeast 540 621 32,000  Level Moncton Center
01:43AM 48.5000 -62.0833 41° Northeast 540 621 32,000  Level Gander Center
01:44AM 48.5833 -61.9167 53° Northeast 540 621 32,000  Level Gander Center
01:45AM 48.6833 -61.7333 50° Northeast 540 621 32,000  Level Gander Center
01:46AM 48.7667 -61.5667 53° Northeast 540 621 32,000  Level Gander Center
01:46AM 48.8333 -61.4500 49° Northeast 530 610 32,000  Level Moncton Center
01:47AM 48.9333 -61.2667 50° Northeast 540 621 32,000  Level Moncton Center
01:48AM 49.0333 -61.0833 50° Northeast 540 621 32,000  Level Moncton Center
01:49AM 49.1000 -60.9167 59° Northeast 540 621 32,000  Level Moncton Center
01:50AM 49.2000 -60.7333 50° Northeast 540 621 32,000  Level Moncton Center
01:51AM 49.3000 -60.5500 50° Northeast 540 621 32,000  Level Moncton Center
01:52AM 49.3333 -60.4667 58° Northeast 540 621 32,000  Level Gander Center
01:52AM 49.3833 -60.3500 57° Northeast 540 621 32,000  Level Moncton Center
01:53AM 49.4833 -60.1667 50° Northeast 540 621 32,000  Level Moncton Center
01:54AM 49.5167 -60.1167 44° Northeast 540 621 32,000  Level Gander Center
01:55AM 49.6167 -59.9167 52° Northeast 540 621 32,000  Level Gander Center
01:55AM 49.6667 -59.7833 60° Northeast 540 621 32,000  Level Moncton Center
01:56AM 49.7667 -59.6333 44° Northeast 540 621 32,000  Level Moncton Center
01:57AM 49.8333 -59.4333 63° Northeast 540 621 32,000  Level Moncton Center
01:58AM 49.8833 -59.3667 41° Northeast 540 621 32,000  Level Gander Center
01:59AM 49.9667 -59.1833 55° Northeast 550 633 32,000  Level Gander Center
02:00AM 50.0667 -58.9833 52° Northeast 550 633 32,000  Level Gander Center
02:00AM 50.1167 -58.8667 56° Northeast 540 621 32,000  Level Moncton Center
02:01AM 50.1500 -58.8000 52° Northeast 550 633 32,000  Level Gander Center
02:02AM 50.2333 -58.5833 59° Northeast 550 633 32,000  Level Gander Center
02:02AM 50.3000 -58.4500 52° Northeast 550 633 32,000  Level Moncton Center
02:03AM 50.3667 -58.2500 62° Northeast 550 633 32,000  Level Moncton Center
02:04AM 50.4167 -58.1833 40° Northeast 550 633 32,000  Level Gander Center
02:05AM 50.4833 -58.0000 60° Northeast 550 633 32,000  Level Gander Center
02:06AM 50.5667 -57.8000 57° Northeast 550 633 32,000  Level Gander Center
02:07AM 50.6333 -57.6167 60° Northeast 540 621 32,000  Level Gander Center
02:08AM 50.7000 -57.4333 60° Northeast 540 621 32,000  Level Gander Center
02:09AM 50.8000 -57.2000 56° Northeast 540 621 32,000  Level Gander Center
02:10AM 50.8833 -57.0167 54° Northeast 540 621 32,000  Level Gander Center
02:11AM 50.9500 -56.8167 62° Northeast 540 621 32,000  Level Gander Center
02:12AM 51.0333 -56.6000 58° Northeast 540 621 32,000  Level Gander Center
02:13AM 51.1000 -56.4000 62° Northeast 540 621 32,000  Level Gander Center
02:14AM 51.2000 -56.1833 54° Northeast 540 621 32,000  Level Gander Center
02:15AM 51.2667 -55.9833 62° Northeast 540 621 32,000  Level Gander Center
02:16AM 51.3500 -55.7667 58° Northeast 550 633 32,000  Level Gander Center
02:17AM 51.4167 -55.5667 62° Northeast 540 621 32,000  Level Gander Center
02:18AM 51.5000 -55.3333 60° Northeast 550 633 32,000  Level Gander Center
02:19AM 51.5833 -55.1500 54° Northeast 550 633 32,000  Level Gander Center
02:20AM 51.6500 -54.9500 62° Northeast 550 633 32,000  Level Gander Center
02:21AM 51.7333 -54.7167 60° Northeast 550 633 32,000  Level Gander Center
02:22AM 51.8000 -54.5167 62° Northeast 550 633 32,000  Level Gander Center
02:23AM 51.8833 -54.2500 63° Northeast 560 644 32,000  Level Gander Center
02:24AM 51.9500 -54.0500 62° Northeast 550 633 32,000  Level Gander Center
02:25AM 52.0333 -53.8500 56° Northeast 560 644 32,000  Level Gander Center
02:26AM 52.1167 -53.6167 60° Northeast 560 644 32,000  Level Gander Center
02:27AM 52.1833 -53.4167 61° Northeast 560 644 32,000  Level Gander Center
02:28AM 52.2500 -53.1667 66° East 560 644 32,000  Level Gander Center
02:29AM 52.3000 -52.9333 71° East 570 656 32,000  Level Gander Center
02:30AM 52.3500 -52.7000 71° East 570 656 32,000  Level Gander Center
02:31AM 52.4167 -52.4667 65° Northeast 570 656 32,000  Level Gander Center
02:32AM 52.4833 -52.2333 65° Northeast 570 656 32,000  Level Gander Center
02:33AM 52.5167 -52.0000 77° East 550 633 32,000  Level Gander Center
02:34AM 52.5833 -51.7500 66° East 560 644 32,000  Level Gander Center
02:35AM 52.6333 -51.5167 70° East 560 644 32,000  Level Gander Center
02:36AM 52.7000 -51.2667 66° East 560 644 32,000  Level Gander Center
02:37AM 52.7333 -51.0333 77° East 570 656 32,000  Level Gander Center
02:38AM 52.8000 -50.7667 67° East 570 656 32,000  Level Gander Center
02:40AM 52.9062 -50.3627 66° East  Level FlightAware Approximate
02:43AM 53.0000 -50.0000 76° East 556 640 32,000  Level ETMS Enhanced Traffic Management System
02:47AM 53.1737 -48.7514 76° East  Level FlightAware Approximate
02:48AM 53.2047 -48.5170 77° East  Level FlightAware Approximate
02:49AM 53.2726 -47.9901 78° East 556 640 32,000  Level FlightAware Transoceanic
02:50AM 53.3043 -47.7370 78° East 556 640 32,000  Level FlightAware Transoceanic
02:51AM 53.3354 -47.4837 78° East 556 640 32,000  Level FlightAware Transoceanic
02:52AM 53.3661 -47.2299 79° East 556 640 32,000  Level FlightAware Transoceanic
02:53AM 53.3961 -46.9758 79° East 556 640 32,000  Level FlightAware Transoceanic
02:54AM 53.4257 -46.7214 79° East 556 640 32,000  Level FlightAware Transoceanic
02:55AM 53.4547 -46.4666 79° East 556 640 32,000  Level FlightAware Transoceanic
02:56AM 53.4831 -46.2114 79° East 556 640 32,000  Level FlightAware Transoceanic
02:57AM 53.5110 -45.9559 80° East 556 640 32,000  Level FlightAware Transoceanic
02:58AM 53.5384 -45.7001 80° East 556 640 32,000  Level FlightAware Transoceanic
02:59AM 53.5652 -45.4440 80° East 556 640 32,000  Level FlightAware Transoceanic
03:00AM 53.5914 -45.1875 80° East 556 640 32,000  Level FlightAware Transoceanic
03:01AM 53.6172 -44.9307 81° East 556 640 32,000  Level FlightAware Transoceanic
03:02AM 53.6423 -44.6736 81° East 556 640 32,000  Level FlightAware Transoceanic
03:03AM 53.6670 -44.4162 81° East 556 640 32,000  Level FlightAware Transoceanic
03:04AM 53.6910 -44.1585 81° East 556 640 32,000  Level FlightAware Transoceanic
03:05AM 53.7145 -43.9005 81° East 556 640 32,000  Level FlightAware Transoceanic
03:06AM 53.7375 -43.6422 82° East 556 640 32,000  Level FlightAware Transoceanic
03:07AM 53.7599 -43.3837 82° East 556 640 32,000  Level FlightAware Transoceanic
03:08AM 53.7817 -43.1248 82° East 556 640 32,000  Level FlightAware Transoceanic
03:09AM 53.8030 -42.8657 82° East 556 640 32,000  Level FlightAware Transoceanic
03:10AM 53.8237 -42.6064 82° East 556 640 32,000  Level FlightAware Transoceanic
03:11AM 53.8439 -42.3468 83° East 556 640 32,000  Level FlightAware Transoceanic
03:12AM 53.8635 -42.0869 83° East 556 640 32,000  Level FlightAware Transoceanic
03:13AM 53.8825 -41.8268 83° East 556 640 32,000  Level FlightAware Transoceanic
03:14AM 53.9010 -41.5665 83° East 556 640 32,000  Level FlightAware Transoceanic
03:15AM 53.9189 -41.3059 83° East 556 640 32,000  Level FlightAware Transoceanic
03:16AM 53.9363 -41.0452 84° East 556 640 32,000  Level FlightAware Transoceanic
03:17AM 53.9530 -40.7842 84° East 556 640 32,000  Level FlightAware Transoceanic
03:18AM 53.9693 -40.5230 84° East 556 640 32,000  Level FlightAware Transoceanic
03:19AM 53.9849 -40.2616 84° East 556 640 32,000  Level FlightAware Transoceanic
03:20AM 53.9987 -40.0226 84° East  Level FlightAware Approximate
03:21AM 54.0121 -39.7834 84° East  Level FlightAware Approximate
03:22AM 54.0266 -39.8104 76° East  Level FlightAware Approximate
03:23AM 54.0590 -39.5763 77° East  Level FlightAware Approximate
03:24AM 54.0910 -39.3419 77° East  Level FlightAware Approximate
03:24AM 54.0000 -40.0000 76° East 529 609 32,000  Level ETMS Enhanced Traffic Management System
03:25AM 54.1225 -39.1072 77° East  Level FlightAware Approximate
03:26AM 54.1536 -38.8712 77° East  Level FlightAware Approximate
03:27AM 54.1843 -38.6349 77° East  Level FlightAware Approximate
03:28AM 54.2143 -38.3995 78° East  Level FlightAware Approximate
03:29AM 54.2439 -38.1637 78° East  Level FlightAware Approximate
03:30AM 54.2964 -37.7956 78° East 529 609 32,000  Level FlightAware Transoceanic
03:31AM 54.3268 -37.5488 78° East 529 609 32,000  Level FlightAware Transoceanic
03:32AM 54.3567 -37.3016 78° East 529 609 32,000  Level FlightAware Transoceanic
03:33AM 54.3862 -37.0540 79° East 529 609 32,000  Level FlightAware Transoceanic
03:34AM 54.4151 -36.8061 79° East 529 609 32,000  Level FlightAware Transoceanic
03:35AM 54.4435 -36.5578 79° East 529 609 32,000  Level FlightAware Transoceanic
03:36AM 54.4714 -36.3092 79° East 529 609 32,000  Level FlightAware Transoceanic
03:37AM 54.4988 -36.0603 79° East 529 609 32,000  Level FlightAware Transoceanic
03:38AM 54.5257 -35.8111 80° East 529 609 32,000  Level FlightAware Transoceanic
03:39AM 54.5520 -35.5615 80° East 529 609 32,000  Level FlightAware Transoceanic
03:40AM 54.5779 -35.3116 80° East 529 609 32,000  Level FlightAware Transoceanic
03:41AM 54.6032 -35.0613 80° East 529 609 32,000  Level FlightAware Transoceanic
03:42AM 54.6280 -34.8108 80° East 529 609 32,000  Level FlightAware Transoceanic
03:43AM 54.6523 -34.5600 81° East 529 609 32,000  Level FlightAware Transoceanic
03:44AM 54.6761 -34.3088 81° East 529 609 32,000  Level FlightAware Transoceanic
03:45AM 54.6993 -34.0574 81° East 529 609 32,000  Level FlightAware Transoceanic
03:46AM 54.7221 -33.8057 81° East 529 609 32,000  Level FlightAware Transoceanic
03:47AM 54.7443 -33.5537 81° East 529 609 32,000  Level FlightAware Transoceanic
03:48AM 54.7660 -33.3015 82° East 529 609 32,000  Level FlightAware Transoceanic
03:49AM 54.7872 -33.0489 82° East 529 609 32,000  Level FlightAware Transoceanic
03:50AM 54.8078 -32.7961 82° East 529 609 32,000  Level FlightAware Transoceanic
03:51AM 54.8279 -32.5431 82° East 529 609 32,000  Level FlightAware Transoceanic
03:52AM 54.8475 -32.2898 82° East 529 609 32,000  Level FlightAware Transoceanic
03:53AM 54.8666 -32.0363 83° East 529 609 32,000  Level FlightAware Transoceanic
03:54AM 54.8851 -31.7825 83° East 529 609 32,000  Level FlightAware Transoceanic
03:55AM 54.9031 -31.5285 83° East 529 609 32,000  Level FlightAware Transoceanic
03:56AM 54.9206 -31.2743 83° East 529 609 32,000  Level FlightAware Transoceanic
03:57AM 54.9375 -31.0198 83° East 529 609 32,000  Level FlightAware Transoceanic
03:58AM 54.9540 -30.7652 84° East 529 609 32,000  Level FlightAware Transoceanic
03:59AM 54.9698 -30.5103 84° East 529 609 32,000  Level FlightAware Transoceanic
04:00AM 54.9852 -30.2553 84° East 529 609 32,000  Level FlightAware Transoceanic
04:01AM 54.9994 -30.0108 84° East  Level FlightAware Approximate
04:02AM 55.0130 -29.7661 84° East  Level FlightAware Approximate
04:02AM 55.0000 -30.0000 86° East 542 624 32,000  Level ETMS Enhanced Traffic Management System
04:03AM 55.0090 -29.7764 86° East  Level FlightAware Approximate
04:04AM 55.0184 -29.5299 86° East  Level FlightAware Approximate
04:05AM 55.0273 -29.2832 86° East  Level FlightAware Approximate
04:06AM 55.0357 -29.0365 86° East  Level FlightAware Approximate
04:07AM 55.0436 -28.7896 87° East  Level FlightAware Approximate
04:08AM 55.0682 -27.8980 88° East 542 624 32,000  Level FlightAware Transoceanic
04:09AM 55.0741 -27.6348 88° East 542 624 32,000  Level FlightAware Transoceanic
04:10AM 55.0795 -27.3716 88° East 542 624 32,000  Level FlightAware Transoceanic
04:11AM 55.0844 -27.1082 88° East 542 624 32,000  Level FlightAware Transoceanic
04:12AM 55.0886 -26.8448 88° East 542 624 32,000  Level FlightAware Transoceanic
04:13AM 55.0923 -26.5814 89° East 542 624 32,000  Level FlightAware Transoceanic
04:14AM 55.0955 -26.3179 89° East 542 624 32,000  Level FlightAware Transoceanic
04:15AM 55.0980 -26.0543 89° East 542 624 32,000  Level FlightAware Transoceanic
04:16AM 55.1000 -25.7908 89° East 542 624 32,000  Level FlightAware Transoceanic
04:17AM 55.1014 -25.5272 90° East 542 624 32,000  Level FlightAware Transoceanic
04:18AM 55.1023 -25.2636 90° East 542 624 32,000  Level FlightAware Transoceanic
04:19AM 55.1026 -25.0000 90° East 542 624 32,000  Level FlightAware Transoceanic
04:20AM 55.1023 -24.7364 90° East 542 624 32,000  Level FlightAware Transoceanic
04:21AM 55.1014 -24.4728 90° East 542 624 32,000  Level FlightAware Transoceanic
04:22AM 55.1000 -24.2092 91° East 542 624 32,000  Level FlightAware Transoceanic
04:23AM 55.0980 -23.9457 91° East 542 624 32,000  Level FlightAware Transoceanic
04:24AM 55.0955 -23.6821 91° East 542 624 32,000  Level FlightAware Transoceanic
04:25AM 55.0923 -23.4186 91° East 542 624 32,000  Level FlightAware Transoceanic
04:26AM 55.0886 -23.1552 92° East 542 624 32,000  Level FlightAware Transoceanic
04:27AM 55.0844 -22.8918 92° East 542 624 32,000  Level FlightAware Transoceanic
04:28AM 55.0795 -22.6284 92° East 542 624 32,000  Level FlightAware Transoceanic
04:29AM 55.0741 -22.3652 92° East 542 624 32,000  Level FlightAware Transoceanic
04:30AM 55.0682 -22.1020 92° East 542 624 32,000  Level FlightAware Transoceanic
04:31AM 55.0616 -21.8389 93° East 542 624 32,000  Level FlightAware Transoceanic
04:32AM 55.0545 -21.5758 93° East 542 624 32,000  Level FlightAware Transoceanic
04:33AM 55.0468 -21.3129 93° East 542 624 32,000  Level FlightAware Transoceanic
04:34AM 55.0386 -21.0501 93° East 542 624 32,000  Level FlightAware Transoceanic
04:35AM 55.0298 -20.7874 93° East 542 624 32,000  Level FlightAware Transoceanic
04:36AM 55.0204 -20.5248 94° East 542 624 32,000  Level FlightAware Transoceanic
04:37AM 55.0105 -20.2623 94° East 542 624 32,000  Level FlightAware Transoceanic
04:38AM 55.0006 -20.0159 94° East  Level FlightAware Approximate
04:39AM 54.9903 -19.7696 94° East  Level FlightAware Approximate
04:40AM 54.9741 -19.7897 102° East  Level FlightAware Approximate
04:41AM 54.9440 -19.5486 102° East  Level FlightAware Approximate
04:42AM 54.9134 -19.3079 102° East  Level FlightAware Approximate
04:43AM 54.8823 -19.0675 103° East  Level FlightAware Approximate
04:44AM 54.8507 -18.8275 103° East  Level FlightAware Approximate
04:45AM 54.8186 -18.5879 103° East  Level FlightAware Approximate
04:46AM 54.7861 -18.3486 103° East  Level FlightAware Approximate
04:47AM 54.7532 -18.1098 103° East  Level FlightAware Approximate
04:48AM 54.7197 -17.8713 104° East  Level FlightAware Approximate
04:49AM 54.6858 -17.6333 104° East  Level FlightAware Approximate
04:50AM 54.6514 -17.3956 104° East  Level FlightAware Approximate
04:51AM 54.6165 -17.1584 104° East  Level FlightAware Approximate
04:52AM 54.5812 -16.9215 104° East  Level FlightAware Approximate
04:53AM 54.5454 -16.6851 105° East  Level FlightAware Approximate
04:54AM 54.5092 -16.4491 105° East  Level FlightAware Approximate
04:55AM 54.4725 -16.2135 105° East  Level FlightAware Approximate
04:56AM 54.4354 -15.9783 105° East  Level FlightAware Approximate
04:57AM 54.3978 -15.7436 105° East  Level FlightAware Approximate
04:58AM 54.3597 -15.5093 105° East  Level FlightAware Approximate
04:59AM 54.3212 -15.2754 106° East  Level FlightAware Approximate
05:00AM 54.2822 -15.0420 106° East  Level FlightAware Approximate
05:01AM 54.2428 -14.8090 106° East  Level FlightAware Approximate
05:02AM 54.2029 -14.5760 106° East  Level FlightAware Approximate
05:02AM 53.9640 -14.0280 106° East 542 624 33,000  Level FlightAware
05:02AM 53.9320 -13.8400 106° East 538 619 33,000  Level FlightAware
05:03AM 54.1625 -14.3436 106° East  Level FlightAware Approximate
05:03AM 53.9060 -13.6900 106° East 538 619 33,000  Level FlightAware
05:04AM 53.8780 -13.5280 106° East 537 618 33,000  Level FlightAware
05:05AM 53.8430 -13.3390 107° East 538 619 33,000  Level FlightAware
05:05AM 53.8140 -13.1770 107° East 537 618 33,000  Level FlightAware
05:06AM 53.7850 -13.0170 107° East 539 620 33,000  Level FlightAware
05:07AM 53.7520 -12.8360 107° East 538 619 33,000  Level FlightAware
05:07AM 53.7220 -12.6720 107° East 536 617 33,000  Level FlightAware
05:08AM 53.6880 -12.4930 108° East 534 615 33,000  Level FlightAware
05:09AM 53.6580 -12.3350 108° East 532 612 33,000  Level FlightAware
05:09AM 53.6250 -12.1610 108° East 530 610 33,000  Level FlightAware
05:10AM 53.5950 -12.0050 108° East 528 608 33,000  Level FlightAware
05:11AM 53.5650 -11.8490 108° East 526 605 33,000  Level FlightAware
05:12AM 53.5310 -11.6790 109° East 523 602 33,000  Level FlightAware
05:12AM 53.5000 -11.5170 108° East 520 598 33,000  Level FlightAware
05:13AM 53.4660 -11.3500 109° East 518 596 33,000  Level FlightAware
05:14AM 53.4360 -11.1980 108° East 517 595 33,000  Level FlightAware
05:14AM 53.4090 -11.0620 108° East 516 594 33,000  Level FlightAware
05:15AM 53.3710 -10.8770 109° East 515 593 33,000  Level FlightAware
05:16AM 53.3400 -10.7260 109° East 512 589 33,000  Level FlightAware
05:16AM 53.3050 -10.5580 109° East 509 586 33,000  Level FlightAware
05:17AM 53.2730 -10.4050 109° East 508 585 33,000  Level FlightAware
05:18AM 53.2420 -10.2560 109° East 506 582 33,000  Level FlightAware
05:19AM 53.2080 -10.0940 109° East 504 580 33,000  Level FlightAware
05:19AM 53.1760 -9.9440 110° East 501 577 33,000  Level FlightAware
05:20AM 53.1410 -9.7800 110° East 500 575 33,000  Level FlightAware
05:21AM 53.1090 -9.6350 110° East 498 573 33,000  Level FlightAware
05:21AM 53.0780 -9.4940 110° East 495 570 33,000  Level FlightAware
05:22AM 53.0440 -9.3370 110° East 495 570 33,000  Level FlightAware
05:23AM 53.0090 -9.1790 110° East 498 573 33,000  Level FlightAware
05:23AM 52.9730 -9.0190 110° East 496 571 33,000 -1,500 Level FlightAware
05:24AM 52.9591 -8.9576 110° East 480 552 31,500  Descending FlightAware UK
05:24AM 52.9490 -8.9120 110° East 495 570 33,000  Climbing FlightAware
05:24AM 52.9448 -8.8938 110° East 478 550 31,500 -6,000 Descending FlightAware UK
05:24AM 52.9355 -8.8511 110° East 478 550 31,500  Level FlightAware UK
05:25AM 52.9216 -8.7871 110° East 478 550 31,500 2,520 Level FlightAware UK
05:25AM 52.9120 -8.7450 110° East 493 567 33,000  Climbing FlightAware
05:25AM 52.9076 -8.7231 110° East 480 552 31,500 -4,740 Descending FlightAware UK
05:25AM 52.8935 -8.6592 110° East 474 545 31,500  Level FlightAware UK
05:25AM 52.8794 -8.5955 110° East 476 548 31,500 3,420 Level FlightAware UK
05:26AM 52.8770 -8.5890 110° East 492 566 33,000  Climbing FlightAware
05:26AM 52.8601 -8.5107 110° East 476 548 31,500 -2,700 Descending FlightAware UK
05:26AM 52.8456 -8.4474 111° Southeast 476 548 31,500 4,680 Level FlightAware UK
05:26AM 52.8470 -8.4590 111° Southeast 492 566 33,000  Climbing FlightAware
05:26AM 52.8310 -8.3841 111° Southeast 474 545 31,500 -2,580 Descending FlightAware UK
05:27AM 52.8163 -8.3200 111° Southeast 474 545 31,500 3,180 Level FlightAware UK
05:27AM 52.8110 -8.3000 111° Southeast 494 568 33,000  Climbing FlightAware
05:27AM 52.7918 -8.2145 111° Southeast 476 548 31,500  Descending FlightAware UK
05:28AM 52.7740 -8.1380 111° Southeast 496 571 33,000  Climbing FlightAware
05:28AM 52.7523 -8.0453 111° Southeast 476 548 31,500  Descending FlightAware UK
05:28AM 52.7410 -8.0010 111° Southeast 495 570 33,000  Climbing FlightAware
05:29AM 52.7223 -7.9184 111° Southeast 476 548 31,500 -2,460 Descending FlightAware UK
05:29AM 52.7073 -7.8549 111° Southeast 476 548 31,500 3,420 Level FlightAware UK
05:29AM 52.7030 -7.8390 111° Southeast 495 570 33,000  Climbing FlightAware
05:29AM 52.6873 -7.7706 111° Southeast 474 545 31,500 -2,700 Descending FlightAware UK
05:30AM 52.6723 -7.7074 111° Southeast 476 548 31,500 3,720 Level FlightAware UK
05:30AM 52.6700 -7.6990 111° Southeast 497 572 33,000  Climbing FlightAware
05:30AM 52.6522 -7.6230 111° Southeast 476 548 31,500  Descending FlightAware UK
05:30AM 52.6410 -7.5790 111° Southeast 495 570 33,000  Climbing FlightAware
05:31AM 52.6218 -7.4963 111° Southeast 476 548 31,500 -2,460 Descending FlightAware UK
05:31AM 52.6065 -7.4330 112° Southeast 476 548 31,500 2,880 Level FlightAware UK
05:31AM 52.5990 -7.4030 112° Southeast 497 572 33,000  Climbing FlightAware
05:31AM 52.5808 -7.3273 112° Southeast 474 545 31,500 -2,580 Descending FlightAware UK
05:32AM 52.5654 -7.2637 112° Southeast 478 550 31,500 3,900 Level FlightAware UK
05:32AM 52.5640 -7.2620 112° Southeast 498 573 33,000  Climbing FlightAware
05:32AM 52.5445 -7.1789 112° Southeast 478 550 31,500 -2,460 Descending FlightAware UK
05:32AM 52.5289 -7.1145 112° Southeast 478 550 31,500 3,420 Level FlightAware UK
05:33AM 52.5250 -7.1030 112° Southeast 499 574 33,000  Climbing FlightAware
05:33AM 52.5081 -7.0297 112° Southeast 478 550 31,500  Descending FlightAware UK
05:33AM 52.4900 -6.9620 112° Southeast 499 574 33,000  Climbing FlightAware
05:34AM 52.4714 -6.8816 112° Southeast 478 550 31,500 -2,520 Descending FlightAware UK
05:34AM 52.4557 -6.8183 112° Southeast 480 552 31,500 4,080 Level FlightAware UK
05:34AM 52.4550 -6.8180 112° Southeast 498 573 33,000  Climbing FlightAware
05:34AM 52.4346 -6.7341 112° Southeast 478 550 31,500 -2,400 Descending FlightAware UK
05:35AM 52.4188 -6.6710 112° Southeast 478 550 31,500 3,600 Level FlightAware UK
05:35AM 52.4140 -6.6560 112° Southeast 501 577 33,000  Climbing FlightAware
05:35AM 52.3979 -6.5869 112° Southeast 478 550 31,500 -2,580 Descending FlightAware UK
05:35AM 52.3821 -6.5238 112° Southeast 478 550 31,500 3,180 Level FlightAware UK
05:35AM 52.3760 -6.5020 112° Southeast 501 577 33,000  Climbing FlightAware
05:36AM 52.3555 -6.4190 112° Southeast 478 550 31,500 -2,400 Descending FlightAware UK
05:36AM 52.3394 -6.3561 113° Southeast 478 550 31,500 4,500 Level FlightAware UK
05:36AM 52.3400 -6.3620 113° Southeast 501 577 33,000  Climbing FlightAware
05:36AM 52.3234 -6.2932 113° Southeast 478 550 31,500 -2,280 Descending FlightAware UK
05:37AM 52.3020 -6.2092 113° Southeast 476 548 31,500 3,720 Level FlightAware UK
05:37AM 52.3040 -6.2220 113° Southeast 502 578 33,000  Climbing FlightAware
05:37AM 52.2858 -6.1463 113° Southeast 476 548 31,500 -2,520 Descending FlightAware UK
05:37AM 52.2697 -6.0832 113° Southeast 476 548 31,500 4,080 Level FlightAware UK
05:37AM 52.2670 -6.0750 113° Southeast 505 581 33,000  Climbing FlightAware
05:38AM 52.2480 -5.9990 113° Southeast 476 548 31,500 -2,400 Descending FlightAware UK
05:38AM 52.2315 -5.9351 113° Southeast 476 548 31,500 3,600 Level FlightAware UK
05:38AM 52.2280 -5.9240 113° Southeast 506 582 33,000  Climbing FlightAware
05:39AM 52.2040 -5.8297 113° Southeast 480 552 31,500  Descending FlightAware UK
05:39AM 52.1850 -5.7580 113° Southeast 508 585 33,000  Climbing FlightAware
05:39AM 52.1653 -5.6818 113° Southeast 480 552 31,500 -2,400 Descending FlightAware UK
05:40AM 52.1487 -5.6183 113° Southeast 478 550 31,500 4,500 Level FlightAware UK
05:40AM 52.1490 -5.6210 113° Southeast 509 586 33,000  Climbing FlightAware
05:40AM 52.1322 -5.5548 113° Southeast 476 548 31,500 -2,280 Descending FlightAware UK
05:40AM 52.1100 -5.4702 113° Southeast 474 545 31,500 3,060 Level FlightAware UK
05:40AM 52.1080 -5.4620 113° Southeast 511 588 33,000  Climbing FlightAware
05:41AM 52.0819 -5.3644 113° Southeast 474 545 31,500  Descending FlightAware UK
05:41AM 52.0690 -5.3210 113° Southeast 516 594 33,000  Climbing FlightAware
05:41AM 52.0479 -5.2367 113° Southeast 478 550 31,500  Descending FlightAware UK
05:42AM 52.0270 -5.1640 113° Southeast 522 601 33,000  Climbing FlightAware
05:42AM 52.0018 -5.0894 113° Southeast 482 555 31,500 -2,520 Descending FlightAware UK
05:42AM 51.9797 -5.0276 120° Southeast 482 555 31,500 4,080 Level FlightAware UK
05:42AM 51.9790 -5.0270 120° Southeast 526 605 33,000  Climbing FlightAware
05:43AM 51.9504 -4.9454 120° Southeast 488 562 31,500  Descending FlightAware UK
05:43AM 51.9290 -4.8880 120° Southeast 525 604 33,000  Climbing FlightAware
05:43AM 51.9063 -4.8232 120° Southeast 490 564 31,500 -2,700 Descending FlightAware UK
05:44AM 51.8842 -4.7623 120° Southeast 492 566 31,500 3,060 Level FlightAware UK
05:44AM 51.8740 -4.7350 120° Southeast 520 598 33,000  Climbing FlightAware
05:44AM 51.8521 -4.6588 120° Southeast 488 562 31,500  Descending FlightAware UK
05:44AM 51.8400 -4.5930 120° Southeast 507 583 33,000  Climbing FlightAware
05:45AM 51.8217 -4.4833 120° Southeast 488 562 31,500  Descending FlightAware UK
05:45AM 51.8120 -4.4260 120° Southeast 504 580 33,000  Climbing FlightAware
05:46AM 51.7927 -4.3088 120° Southeast 486 559 31,500  Descending FlightAware UK
05:46AM 51.7890 -4.2880 120° Southeast 503 579 33,000  Climbing FlightAware
05:46AM 51.7708 -4.1775 120° Southeast 482 555 31,500 300 Descending FlightAware UK
05:47AM 51.7650 -4.1430 120° Southeast 506 582 33,200 1,200 Climbing FlightAware
05:47AM 51.7528 -4.0685 120° Southeast 486 559 32,100 -1,200 Descending FlightAware UK
05:47AM 51.7421 -4.0027 105° East 490 564 32,500 4,500 Climbing FlightAware UK
05:47AM 51.7370 -3.9750 105° East 509 586 34,200 780 Climbing FlightAware
05:48AM 51.7210 -3.8699 105° East 488 562 33,000 840 Descending FlightAware UK
05:48AM 51.7170 -3.8450 105° East 514 592 34,700 1,200 Climbing FlightAware
05:48AM 51.7073 -3.7801 105° East 496 571 33,500 420 Descending FlightAware UK
05:49AM 51.6940 -3.6920 105° East 517 595 35,000  Climbing FlightAware
05:49AM 51.6831 -3.6225 105° East 494 568 33,500  Descending FlightAware UK
05:49AM 51.6780 -3.5420 105° East 511 588 35,000  Climbing FlightAware
05:50AM 51.6720 -3.4645 105° East 496 571 33,500 -2,460 Descending FlightAware UK
05:50AM 51.6672 -3.3959 96° East 496 571 33,500 4,260 Level FlightAware UK
05:50AM 51.6670 -3.3910 96° East 510 587 35,000 1,860 Climbing FlightAware
05:51AM 51.6540 -3.2260 97° East 509 586 35,000 -1,440 Level FlightAware
05:51AM 51.6482 -3.1473 97° East 494 568 33,500 -2,520 Descending FlightAware UK
05:51AM 51.6440 -3.0796 96° East 496 571 33,500 4,080 Level FlightAware UK
05:51AM 51.6440 -3.0750 96° East 508 585 35,000 4,500 Climbing FlightAware
05:52AM 51.6390 -3.0077 97° East 508 585 35,000  Level FlightAware ADS-B
05:52AM 51.6305 -2.8876 96° East 508 585 35,000 -1,740 Level FlightAware ADS-B
05:52AM 51.6249 -2.8090 96° East 496 571 33,500  Descending FlightAware UK
05:53AM 51.6211 -2.7604 96° East 508 585 35,000  Climbing FlightAware ADS-B
05:53AM 51.6165 -2.6967 96° East 492 566 33,500  Descending FlightAware UK
05:53AM 51.6116 -2.6371 96° East 508 585 35,000  Climbing FlightAware ADS-B
05:54AM 51.6044 -2.5398 96° East 494 568 33,500  Descending FlightAware UK
05:54AM 51.6026 -2.5175 96° East 508 585 35,000  Climbing FlightAware ADS-B
05:54AM 51.5975 -2.4493 96° East 492 566 33,500  Descending FlightAware UK
05:54AM 51.5938 -2.4054 96° East 508 585 35,000  Climbing FlightAware ADS-B
05:55AM 51.5869 -2.3140 96° East 500 575 33,500  Descending FlightAware UK
05:55AM 51.5847 -2.2892 96° East 509 586 35,000 2,340 Climbing FlightAware ADS-B
05:55AM 51.5757 -2.1732 97° East 507 583 35,000 -1,920 Level FlightAware ADS-B
05:56AM 51.5711 -2.1120 97° East 496 571 33,500  Descending FlightAware UK
05:56AM 51.5668 -2.0579 97° East 506 582 35,000 1,980 Climbing FlightAware ADS-B
05:56AM 51.5590 -1.9580 97° East 504 580 35,000  Level FlightAware
05:56AM 51.5577 -1.9428 98° East 504 580 35,000  Level FlightAware ADS-B
05:57AM 51.5481 -1.8242 97° East 503 579 35,000 -1,620 Level FlightAware ADS-B
05:57AM 51.5407 -1.7324 97° East 492 566 33,500  Descending FlightAware UK
05:57AM 51.5384 -1.7061 97° East 502 578 35,000  Climbing FlightAware ADS-B
05:58AM 51.5334 -1.6439 97° East 492 566 33,500  Descending FlightAware UK
05:58AM 51.5290 -1.5951 97° East 503 579 35,000 1,920 Climbing FlightAware ADS-B
05:58AM 51.5192 -1.4770 98° East 504 580 35,000 -1,740 Level FlightAware ADS-B
05:59AM 51.5127 -1.3993 98° East 494 568 33,500  Descending FlightAware UK
05:59AM 51.5094 -1.3621 98° East 505 581 35,000 2,160 Climbing FlightAware ADS-B
05:59AM 51.4998 -1.2511 98° East 506 582 35,000  Level FlightAware ADS-B
06:00AM 51.4900 -1.1358 98° East 508 585 35,000  Level FlightAware ADS-B
06:00AM 51.4799 -1.0205 98° East 508 585 35,000 -1,680 Level FlightAware ADS-B
06:01AM 51.4720 -0.9305 98° East 498 573 33,500  Descending FlightAware UK
06:01AM 51.4694 -0.9014 98° East 508 585 35,000  Climbing FlightAware ADS-B
06:01AM 51.4619 -0.8179 98° East 496 571 33,500  Descending FlightAware UK
06:01AM 51.4593 -0.7896 98° East 509 586 35,000 2,280 Climbing FlightAware ADS-B
06:02AM 51.4485 -0.6741 98° East 510 587 35,000 -1,980 Level FlightAware ADS-B
06:02AM 51.4434 -0.6160 98° East 494 568 33,500  Descending FlightAware UK
06:03AM 51.4390 -0.5660 98° East 511 588 35,000 4,260 Climbing FlightAware
06:03AM 51.4364 -0.5396 99° East 512 589 35,000  Level FlightAware ADS-B
06:03AM 51.4257 -0.4274 99° East 513 590 35,000  Level FlightAware ADS-B
06:04AM 51.4136 -0.2996 99° East 514 592 35,000 -1,620 Level FlightAware ADS-B
06:04AM 51.4054 -0.2107 99° East 496 571 33,500  Descending FlightAware UK
06:04AM 51.4027 -0.1833 99° East 515 593 35,000 2,340 Climbing FlightAware ADS-B
06:05AM 51.3918 -0.0701 99° East 516 594 35,000 -1,740 Level FlightAware ADS-B
06:05AM 51.3836 0.0158 99° East 496 571 33,500  Descending FlightAware UK
06:05AM 51.3806 0.0428 99° East 518 596 35,000 2,220 Climbing FlightAware ADS-B
06:06AM 51.3687 0.1641 99° East 519 597 35,000 -1,560 Level FlightAware ADS-B
06:06AM 51.3588 0.2665 99° East 500 575 33,500  Descending FlightAware UK
06:06AM 51.3552 0.3003 99° East 519 597 35,000  Climbing FlightAware ADS-B
06:07AM 51.3473 0.3810 99° East 498 573 33,500  Descending FlightAware UK
06:07AM 51.3426 0.4250 99° East 518 596 35,000 1,920 Climbing FlightAware ADS-B
06:07AM 51.3298 0.5536 99° East 520 598 35,000  Level FlightAware ADS-B
06:08AM 51.3180 0.6673 99° East 521 600 35,000  Level FlightAware ADS-B
06:08AM 51.3051 0.7885 100° East 521 600 35,000  Level FlightAware ADS-B
06:09AM 51.2931 0.9060 99° East 520 598 35,000 -1,920 Level FlightAware ADS-B
06:09AM 51.2860 0.9725 99° East 500 575 33,500  Descending FlightAware UK
06:10AM 51.2792 1.0345 99° East 519 597 35,000 1,680 Climbing FlightAware ADS-B
06:10AM 51.2646 1.1699 100° East 519 597 35,000 -1,380 Level FlightAware ADS-B
06:11AM 51.2519 1.2897 100° East 502 578 33,500  Descending FlightAware UK
06:11AM 51.2520 1.2860 100° East 516 594 35,000  Climbing FlightAware
06:11AM 51.2420 1.3795 100° East 500 575 33,500  Descending FlightAware UK
06:11AM 51.2360 1.4320 100° East 514 592 35,000 1,320 Climbing FlightAware
06:12AM 51.2157 1.5566 105° East 35,000  Level FlightAware ADS-B
06:12AM 51.1983 1.6142 116° Southeast 511 588 35,000 -2,220 Level FlightAware ADS-B
06:13AM 51.1732 1.6986 116° Southeast 496 571 33,500  Descending FlightAware UK
06:13AM 51.1561 1.7567 116° Southeast 511 588 35,000  Climbing FlightAware ADS-B
06:13AM 51.1372 1.8211 116° Southeast 496 571 33,500  Descending FlightAware UK
06:13AM 51.1240 1.8700 116° Southeast 510 587 35,000 2,640 Climbing FlightAware
06:14AM 51.1063 1.9351 113° Southeast 511 588 35,000 -2,100 Level FlightAware ADS-B
06:14AM 51.0818 2.0281 113° Southeast 492 566 33,500  Descending FlightAware UK
06:14AM 51.0746 2.0483 113° Southeast 511 588 35,000  Climbing FlightAware ADS-B
06:15AM 51.0516 2.1306 113° Southeast 494 568 33,500  Descending FlightAware UK
06:15AM 51.0420 2.1600 113° Southeast 511 588 35,000 1,740 Climbing FlightAware
06:16AM 51.0030 2.2890 116° Southeast 512 589 35,000 -1,680 Level FlightAware
06:16AM 50.9843 2.3540 116° Southeast 496 571 33,500  Descending FlightAware UK
06:16AM 50.9670 2.4110 115° Southeast 513 590 35,000  Climbing FlightAware
06:16AM 50.9539 2.4557 115° Southeast 498 573 33,500  Descending FlightAware UK
06:17AM 50.9150 2.5870 115° Southeast 511 588 35,000  Climbing FlightAware
06:17AM 50.8815 2.6998 115° Southeast 496 571 33,500  Descending FlightAware UK
06:18AM 50.8760 2.7160 115° Southeast 511 588 35,000 1,680 Climbing FlightAware
06:18AM 50.8300 2.8710 115° Southeast 510 587 35,000  Level FlightAware
06:19AM 50.7890 3.0020 116° Southeast 510 587 35,000 -1,680 Level FlightAware
06:19AM 50.7716 3.0635 116° Southeast 494 568 33,500  Descending FlightAware UK
06:20AM 50.7430 3.1530 116° Southeast 510 587 35,000  Climbing FlightAware
06:20AM 50.7215 3.2241 116° Southeast 492 566 33,500 -2,520 Descending FlightAware UK
06:20AM 50.7029 3.2843 116° Southeast 496 571 33,500 3,300 Level FlightAware UK
06:21AM 50.6960 3.3070 116° Southeast 511 588 35,000  Climbing FlightAware
06:21AM 50.6718 3.3848 116° Southeast 494 568 33,500  Descending FlightAware UK
06:21AM 50.6600 3.4200 116° Southeast 512 589 35,000 1,500 Climbing FlightAware
06:22AM 50.6170 3.5610 116° Southeast 513 590 35,000  Level FlightAware
06:23AM 50.5660 3.7210 117° Southeast 512 589 35,000 -1,140 Level FlightAware
06:23AM 50.5274 3.8461 117° Southeast 496 571 33,500  Descending FlightAware UK
06:23AM 50.5260 3.8510 117° Southeast 510 587 35,000 1,740 Climbing FlightAware
06:24AM 50.4810 3.9940 116° Southeast 510 587 35,000 -1,500 Level FlightAware
06:24AM 50.4584 4.0650 116° Southeast 1 1 33,500  Descending FlightAware UK
06:25AM 50.4330 4.1420 116° Southeast 509 586 35,000  Climbing FlightAware
06:25AM 50.4136 4.2023 116° Southeast 1 1 33,500 -2,580 Descending FlightAware UK
06:25AM 50.3953 4.2636 115° Southeast 1 1 33,500 3,900 Level FlightAware UK
06:25AM 50.3930 4.2670 115° Southeast 507 583 35,000  Climbing FlightAware
06:26AM 50.3696 4.3410 115° Southeast 1 1 33,500  Descending FlightAware UK
06:26AM 50.3450 4.4170 115° Southeast 505 581 35,000 1,320 Climbing FlightAware
06:27AM 50.3020 4.5470 117° Southeast 506 582 35,000  Level FlightAware
06:27AM 50.2650 4.6610 117° Southeast 504 580 35,000  Level FlightAware
06:28AM 50.2120 4.8220 117° Southeast 503 579 35,000  Level FlightAware
06:29AM 50.1720 4.9410 118° Southeast 502 578 35,000  Level FlightAware
06:30AM 50.1230 5.0890 117° Southeast 503 579 35,000  Level FlightAware
06:30AM 50.0790 5.2240 117° Southeast 504 580 35,000  Level FlightAware
06:31AM 50.0420 5.3340 118° Southeast 505 581 35,000  Level FlightAware
06:32AM 49.9880 5.4950 118° Southeast 504 580 35,000  Level FlightAware
06:32AM 49.9460 5.6160 118° Southeast 505 581 35,000  Level FlightAware
06:33AM 49.8940 5.7700 118° Southeast 505 581 35,000  Level FlightAware
06:34AM 49.8530 5.8880 118° Southeast 503 579 35,000  Level FlightAware
06:34AM 49.8120 6.0100 117° Southeast 502 578 35,000  Level FlightAware
06:35AM 49.7620 6.1560 118° Southeast 505 581 35,000  Level FlightAware
06:36AM 49.7140 6.2920 119° Southeast 500 575 35,000  Level FlightAware
06:37AM 49.6650 6.4340 118° Southeast 503 579 35,000  Level FlightAware
06:37AM 49.6210 6.5570 119° Southeast 504 580 35,000  Level FlightAware
06:38AM 49.5700 6.7020 118° Southeast 505 581 35,000  Level FlightAware
06:39AM 49.5250 6.8290 119° Southeast 507 583 35,000  Level FlightAware
06:39AM 49.4810 6.9520 119° Southeast 508 585 35,000  Level FlightAware
06:40AM 49.4280 7.0970 119° Southeast 510 587 35,000  Level FlightAware
06:41AM 49.3830 7.2270 118° Southeast 506 582 35,000  Level FlightAware
06:41AM 49.3380 7.3470 120° Southeast 505 581 35,000  Level FlightAware
06:42AM 49.2860 7.4920 119° Southeast 502 578 35,000  Level FlightAware
06:43AM 49.2410 7.6130 120° Southeast 503 579 35,000  Level FlightAware
06:44AM 49.1890 7.7570 119° Southeast 503 579 35,000  Level FlightAware
06:44AM 49.1420 7.8850 119° Southeast 503 579 35,000  Level FlightAware
06:45AM 49.0950 8.0090 120° Southeast 504 580 35,000  Level FlightAware
06:46AM 49.0430 8.1490 119° Southeast 504 580 35,000  Level FlightAware
06:46AM 48.9960 8.2730 120° Southeast 504 580 35,000  Level FlightAware
06:47AM 48.9520 8.3900 120° Southeast 501 577 35,000  Level FlightAware
06:48AM 48.9000 8.5290 120° Southeast 502 578 35,000  Level FlightAware
06:48AM 48.8470 8.6380 126° Southeast 475 547 35,000  Level FlightAware
06:49AM 48.7700 8.7380 139° Southeast 471 542 35,000  Level FlightAware
06:50AM 48.7050 8.8290 137° Southeast 473 544 35,000  Level FlightAware
06:51AM 48.6330 8.9340 136° Southeast 473 544 35,000  Level FlightAware
06:51AM 48.5690 9.0250 137° Southeast 472 543 35,000  Level FlightAware
06:52AM 48.5020 9.1070 141° Southeast 468 539 35,000  Level FlightAware
06:53AM 48.4240 9.1960 143° Southeast 468 539 35,000  Level FlightAware
06:53AM 48.3530 9.2760 143° Southeast 469 540 35,000  Level FlightAware
06:54AM 48.2750 9.3650 143° Southeast 470 541 35,000  Level FlightAware
06:55AM 48.2180 9.4280 144° Southeast 465 535 35,000  Level FlightAware
06:55AM 48.1370 9.5210 143° Southeast 466 536 35,000  Level FlightAware
06:56AM 48.0690 9.5980 143° Southeast 467 537 35,000  Level FlightAware
06:57AM 47.9890 9.6860 144° Southeast 469 540 35,000  Level FlightAware
06:58AM 47.9170 9.7690 142° Southeast 470 541 35,000  Level FlightAware
06:58AM 47.8350 9.8590 144° Southeast 470 541 35,000  Level FlightAware
07:00AM 47.6860 10.0230 143° Southeast 478 550 35,000  Level FlightAware
07:00AM 47.6170 10.1000 143° Southeast 478 550 35,000  Level FlightAware
07:01AM 47.5430 10.1820 143° Southeast 479 551 35,000  Level FlightAware
07:02AM 47.4630 10.2690 144° Southeast 480 552 35,000  Level FlightAware
07:03AM 47.3820 10.3570 144° Southeast 479 551 35,000  Level FlightAware
07:03AM 47.3110 10.4340 144° Southeast 479 551 35,000  Level FlightAware
07:04AM 47.2420 10.5080 144° Southeast 479 551 35,000  Level FlightAware
07:05AM 47.1580 10.5980 144° Southeast 480 552 35,000  Level FlightAware
07:05AM 47.0870 10.6750 144° Southeast 479 551 35,000  Level FlightAware
07:06AM 47.0140 10.7430 148° Southeast 474 545 35,000  Level FlightAware
07:07AM 46.9510 10.7830 157° South 465 535 35,000  Level FlightAware
07:08AM 46.8180 10.8620 158° South 471 542 35,000  Level FlightAware
07:08AM 46.7210 10.9270 155° Southeast 474 545 35,000  Level FlightAware
07:09AM 46.6530 10.9750 154° Southeast 475 547 35,000  Level FlightAware
07:10AM 46.5680 11.0360 154° Southeast 480 552 35,000  Level FlightAware
07:10AM 46.4790 11.0990 154° Southeast 480 552 35,000  Level FlightAware
07:11AM 46.3960 11.1560 155° Southeast 479 551 35,000  Level FlightAware
07:12AM 46.3040 11.2200 154° Southeast 480 552 35,000  Level FlightAware
07:13AM 46.2230 11.2760 154° Southeast 482 555 35,000  Level FlightAware
07:13AM 46.1330 11.3380 154° Southeast 483 556 35,000  Level FlightAware
07:14AM 46.0540 11.3920 155° Southeast 484 557 35,000  Level FlightAware
07:15AM 45.9720 11.4490 154° Southeast 484 557 35,000  Level FlightAware
07:15AM 45.8810 11.5110 155° Southeast 484 557 35,000  Level FlightAware
07:16AM 45.8030 11.5650 154° Southeast 484 557 35,000  Level FlightAware
07:17AM 45.7200 11.6210 155° Southeast 484 557 35,000  Level FlightAware
07:17AM 45.6370 11.6990 147° Southeast 485 558 35,000  Level FlightAware
07:18AM 45.5920 11.8160 119° Southeast 500 575 35,000  Level FlightAware
07:19AM 45.5520 11.9420 114° Southeast 496 571 35,000  Level FlightAware
07:19AM 45.5150 12.0560 115° Southeast 499 574 35,000  Level FlightAware
07:20AM 45.4670 12.1900 117° Southeast 495 570 35,000  Level FlightAware
07:21AM 45.4150 12.3100 122° Southeast 495 570 35,000  Level FlightAware
07:22AM 45.3640 12.4240 122° Southeast 494 568 35,000  Level FlightAware
07:22AM 45.3140 12.5340 123° Southeast 492 566 35,000  Level FlightAware
07:23AM 45.2590 12.6540 123° Southeast 491 565 35,000  Level FlightAware
07:24AM 45.2090 12.7660 122° Southeast 491 565 35,000  Level FlightAware
07:24AM 45.1530 12.8890 123° Southeast 496 571 35,000  Level FlightAware
07:25AM 45.1050 12.9990 122° Southeast 496 571 35,000  Level FlightAware
07:26AM 45.0500 13.1260 121° Southeast 496 571 35,000  Level FlightAware
07:27AM 45.0020 13.2330 122° Southeast 493 567 35,000  Level FlightAware
07:27AM 44.9540 13.3410 122° Southeast 493 567 35,000  Level FlightAware
07:28AM 44.8990 13.4640 122° Southeast 493 567 35,000  Level FlightAware
07:29AM 44.8480 13.5760 123° Southeast 492 566 35,000  Level FlightAware
07:29AM 44.8000 13.6830 122° Southeast 492 566 35,000  Level FlightAware
07:30AM 44.7470 13.8000 123° Southeast 493 567 35,000  Level FlightAware
07:31AM 44.6950 13.9140 123° Southeast 492 566 35,000  Level FlightAware
07:32AM 44.6510 14.0120 122° Southeast 496 571 35,000  Level FlightAware
07:33AM 44.5570 14.2160 123° Southeast 489 563 35,000 360 Level FlightAware
07:33AM 44.5170 14.3050 122° Southeast 494 568 35,600 1,260 Climbing FlightAware
07:34AM 44.4450 14.4600 123° Southeast 488 562 36,900 780 Climbing FlightAware
07:35AM 44.3830 14.5910 123° Southeast 494 568 37,000 60 Climbing FlightAware
07:36AM 44.3300 14.7070 123° Southeast 494 568 37,000  Level FlightAware
07:36AM 44.2810 14.8110 123° Southeast 494 568 37,000  Level FlightAware
07:37AM 44.2270 14.9250 123° Southeast 494 568 37,000  Level FlightAware
07:38AM 44.1750 15.0360 123° Southeast 493 567 37,000  Level FlightAware
07:38AM 44.1190 15.1530 124° Southeast 493 567 37,000  Level FlightAware
07:39AM 44.0830 15.2270 124° Southeast 495 570 37,000  Level FlightAware
07:40AM 44.0200 15.3600 123° Southeast 496 571 37,000  Level FlightAware
07:40AM 43.9700 15.4660 123° Southeast 498 573 37,000  Level FlightAware
07:41AM 43.9100 15.5880 124° Southeast 499 574 37,000  Level FlightAware
07:42AM 43.8510 15.7110 124° Southeast 497 572 37,000  Level FlightAware
07:43AM 43.8000 15.8180 123° Southeast 497 572 37,000  Level FlightAware
07:43AM 43.7500 15.9190 124° Southeast 497 572 37,000  Level FlightAware
07:44AM 43.6920 16.0390 124° Southeast 498 573 37,000  Level FlightAware
07:45AM 43.6380 16.1500 124° Southeast 500 575 37,000  Level FlightAware
07:45AM 43.5840 16.2570 125° Southeast 500 575 37,000  Level FlightAware
07:46AM 43.5450 16.3370 124° Southeast 500 575 37,000  Level FlightAware
07:47AM 43.4920 16.4430 125° Southeast 500 575 37,000  Level FlightAware
07:47AM 43.4460 16.5360 124° Southeast 502 578 37,000  Level FlightAware
07:48AM 43.3810 16.6680 124° Southeast 507 583 37,000  Level FlightAware
07:49AM 43.3270 16.7750 125° Southeast 507 583 37,000  Level FlightAware
07:49AM 43.2710 16.8850 125° Southeast 499 574 37,000  Level FlightAware
07:50AM 43.2140 16.9980 125° Southeast 498 573 37,000  Level FlightAware
07:51AM 43.1550 17.1160 124° Southeast 497 572 37,000  Level FlightAware
07:51AM 43.1020 17.2200 125° Southeast 496 571 37,000  Level FlightAware
07:52AM 43.0490 17.3230 125° Southeast 494 568 37,000  Level FlightAware
07:53AM 42.9900 17.4390 125° Southeast 493 567 37,000  Level FlightAware
07:54AM 42.9300 17.5550 125° Southeast 493 567 37,000  Level FlightAware
07:54AM 42.8780 17.6550 125° Southeast 501 577 37,000  Level FlightAware
07:55AM 42.8170 17.7740 125° Southeast 500 575 37,000  Level FlightAware
07:56AM 42.7630 17.8770 126° Southeast 502 578 37,000  Level FlightAware
07:56AM 42.7130 17.9720 126° Southeast 504 580 37,000  Level FlightAware
07:57AM 42.6420 18.1100 125° Southeast 508 585 37,000  Level FlightAware
07:58AM 42.5860 18.2090 128° Southeast 511 588 37,000  Level FlightAware
07:59AM 42.5150 18.3130 133° Southeast 514 592 37,000  Level FlightAware
07:59AM 42.4470 18.4040 135° Southeast 514 592 37,000  Level FlightAware
08:00AM 42.3900 18.4820 135° Southeast 513 590 37,000  Level FlightAware
08:01AM 42.3020 18.6030 134° Southeast 512 589 37,000  Level FlightAware
08:01AM 42.2490 18.6750 135° Southeast 511 588 37,000  Level FlightAware
08:02AM 42.1630 18.7930 134° Southeast 509 586 37,000  Level FlightAware
08:03AM 42.0980 18.8810 135° Southeast 511 588 37,000  Level FlightAware
08:04AM 42.0030 19.0090 135° Southeast 511 588 37,000  Level FlightAware
08:04AM 41.9290 19.1080 135° Southeast 512 589 37,000  Level FlightAware
08:05AM 41.8610 19.1980 135° Southeast 513 590 37,000  Level FlightAware
08:06AM 41.7960 19.2850 135° Southeast 514 592 37,000  Level FlightAware
08:06AM 41.7250 19.3750 137° Southeast 513 590 37,000  Level FlightAware
08:07AM 41.6470 19.4760 136° Southeast 512 589 37,000  Level FlightAware
08:08AM 41.5790 19.5620 137° Southeast 510 587 37,000  Level FlightAware
08:09AM 41.5040 19.6590 136° Southeast 508 585 37,000  Level FlightAware
08:09AM 41.4210 19.7640 136° Southeast 502 578 37,000  Level FlightAware
08:10AM 41.3280 19.8810 137° Southeast 500 575 37,000  Level FlightAware
08:11AM 41.2570 19.9700 137° Southeast 498 573 37,000  Level FlightAware
08:12AM 41.1850 20.0600 137° Southeast 496 571 37,000  Level FlightAware
08:12AM 41.1160 20.1450 137° Southeast 495 570 37,000  Level FlightAware
08:13AM 41.0500 20.2290 136° Southeast 497 572 37,000  Level FlightAware
08:14AM 40.9730 20.3220 138° Southeast 496 571 37,000  Level FlightAware
08:14AM 40.9050 20.4070 137° Southeast 494 568 37,000  Level FlightAware
08:15AM 40.8400 20.4880 137° Southeast 495 570 37,000  Level FlightAware
08:16AM 40.7650 20.5810 137° Southeast 498 573 37,000  Level FlightAware
08:17AM 40.7000 20.6600 137° Southeast 502 578 37,000  Level FlightAware
08:17AM 40.6250 20.7520 137° Southeast 505 581 37,000  Level FlightAware
08:18AM 40.5570 20.8350 137° Southeast 505 581 37,000  Level FlightAware
08:19AM 40.4890 20.9160 138° Southeast 505 581 37,000  Level FlightAware
08:19AM 40.4130 21.0110 136° Southeast 502 578 37,000  Level FlightAware
08:20AM 40.3460 21.1030 134° Southeast 502 578 37,000  Level FlightAware
08:21AM 40.2710 21.1990 136° Southeast 498 573 37,000  Level FlightAware
08:21AM 40.2010 21.2850 137° Southeast 503 579 37,000  Level FlightAware
08:22AM 40.1320 21.3670 138° Southeast 504 580 37,000  Level FlightAware
08:23AM 40.0540 21.4590 138° Southeast 504 580 37,000  Level FlightAware
08:24AM 39.9850 21.5410 138° Southeast 503 579 37,000  Level FlightAware
08:24AM 39.9080 21.6330 137° Southeast 502 578 37,000  Level FlightAware
08:25AM 39.8390 21.7140 138° Southeast 501 577 37,000  Level FlightAware
08:26AM 39.7750 21.7900 138° Southeast 503 579 37,000  Level FlightAware
08:27AM 39.6260 21.9650 138° Southeast 500 575 37,000  Level FlightAware
08:28AM 39.5570 22.0460 138° Southeast 505 581 37,000  Level FlightAware
08:28AM 39.4800 22.1370 138° Southeast 498 573 37,000  Level FlightAware
08:29AM 39.4100 22.2180 138° Southeast 499 574 37,000  Level FlightAware
08:30AM 39.3310 22.3090 138° Southeast 501 577 37,000  Level FlightAware
08:31AM 39.2620 22.3900 138° Southeast 502 578 37,000  Level FlightAware
08:31AM 39.1810 22.4830 138° Southeast 503 579 37,000  Level FlightAware
08:32AM 39.1130 22.5670 136° Southeast 500 575 37,000  Level FlightAware
08:33AM 39.0570 22.6580 128° Southeast 496 571 37,000  Level FlightAware
08:33AM 38.9970 22.7680 125° Southeast 495 570 37,000  Level FlightAware
08:34AM 38.9450 22.8630 125° Southeast 495 570 37,000  Level FlightAware
08:35AM 38.8800 22.9850 124° Southeast 500 575 37,000  Level FlightAware
08:35AM 38.8260 23.0820 126° Southeast 499 574 37,000  Level FlightAware
08:36AM 38.7730 23.1780 125° Southeast 499 574 37,000  Level FlightAware
08:37AM 38.7140 23.2850 125° Southeast 499 574 37,000  Level FlightAware
08:38AM 38.6600 23.3810 126° Southeast 500 575 37,000  Level FlightAware
08:38AM 38.6080 23.4750 125° Southeast 500 575 37,000  Level FlightAware
08:39AM 38.5460 23.5880 125° Southeast 499 574 37,000  Level FlightAware
08:40AM 38.4870 23.6910 126° Southeast 499 574 37,000  Level FlightAware
08:40AM 38.4330 23.7890 125° Southeast 498 573 37,000  Level FlightAware
08:41AM 38.3790 23.8850 126° Southeast 498 573 37,000  Level FlightAware
08:42AM 38.3170 23.9940 126° Southeast 499 574 37,000  Level FlightAware
08:42AM 38.2640 24.0900 125° Southeast 498 573 37,000  Level FlightAware
08:43AM 38.2030 24.1940 127° Southeast 497 572 37,000  Level FlightAware
08:44AM 38.1510 24.2870 125° Southeast 497 572 37,000  Level FlightAware
08:45AM 38.0960 24.3830 126° Southeast 497 572 37,000  Level FlightAware
08:45AM 38.0330 24.4920 126° Southeast 498 573 37,000  Level FlightAware
08:46AM 37.9740 24.5960 126° Southeast 499 574 37,000  Level FlightAware
08:47AM 37.9200 24.6900 126° Southeast 498 573 37,000  Level FlightAware
08:47AM 37.8660 24.7820 127° Southeast 497 572 37,000  Level FlightAware
08:48AM 37.8100 24.8780 126° Southeast 496 571 37,000  Level FlightAware
08:49AM 37.7560 24.9710 126° Southeast 495 570 37,000  Level FlightAware
08:50AM 37.6860 25.0900 127° Southeast 495 570 37,000  Level FlightAware
08:50AM 37.6310 25.1820 127° Southeast 497 572 37,000  Level FlightAware
08:51AM 37.5780 25.2730 126° Southeast 497 572 37,000  Level FlightAware
08:52AM 37.5170 25.3780 126° Southeast 499 574 37,000  Level FlightAware
08:52AM 37.4610 25.4710 127° Southeast 500 575 37,000  Level FlightAware
08:53AM 37.4060 25.5650 126° Southeast 501 577 37,000  Level FlightAware
08:54AM 37.3500 25.6580 127° Southeast 501 577 37,000  Level FlightAware
08:54AM 37.2860 25.7650 127° Southeast 500 575 37,000  Level FlightAware
08:55AM 37.2240 25.8670 127° Southeast 500 575 37,000  Level FlightAware
08:56AM 37.1710 25.9550 127° Southeast 499 574 37,000  Level FlightAware
08:56AM 37.1140 26.0500 127° Southeast 500 575 37,000  Level FlightAware
08:57AM 37.0490 26.1580 127° Southeast 501 577 37,000  Level FlightAware
08:58AM 36.9940 26.2480 127° Southeast 501 577 37,000  Level FlightAware
08:59AM 36.9320 26.3520 127° Southeast 501 577 37,000  Level FlightAware
09:00AM 36.8370 26.5060 128° Southeast 502 578 37,000  Level FlightAware
09:00AM 36.7830 26.5940 127° Southeast 503 579 37,000  Level FlightAware
09:01AM 36.7260 26.6860 128° Southeast 503 579 37,000  Level FlightAware
09:02AM 36.6580 26.7970 127° Southeast 504 580 37,000  Level FlightAware
09:03AM 36.5970 26.8960 127° Southeast 504 580 37,000  Level FlightAware
09:03AM 36.5340 26.9970 128° Southeast 504 580 37,000  Level FlightAware
09:04AM 36.4560 27.1230 128° Southeast 505 581 37,000  Level FlightAware
09:05AM 36.4020 27.2080 128° Southeast 505 581 37,000  Level FlightAware
09:06AM 36.3330 27.3180 128° Southeast 506 582 37,000  Level FlightAware
09:06AM 36.2830 27.4000 127° Southeast 506 582 37,000  Level FlightAware
09:07AM 36.2350 27.4790 127° Southeast 506 582 37,000  Level FlightAware
09:08AM 36.1870 27.5580 127° Southeast 506 582 37,000  Level FlightAware
09:08AM 36.1390 27.6360 127° Southeast 506 582 37,000  Level FlightAware
09:09AM 36.0800 27.7350 126° Southeast 506 582 37,000  Level FlightAware
09:10AM 36.0320 27.8130 127° Southeast 506 582 37,000  Level FlightAware
09:11AM 35.8910 28.0160 131° Southeast 510 587 37,000  Level FlightAware
09:11AM 35.8240 28.1210 128° Southeast 510 587 37,000  Level FlightAware
09:12AM 35.7650 28.2120 129° Southeast 509 586 37,000  Level FlightAware
09:13AM 35.7060 28.3030 129° Southeast 510 587 37,000  Level FlightAware
09:14AM 35.6420 28.4030 128° Southeast 511 588 37,000  Level FlightAware
09:14AM 35.5830 28.4940 129° Southeast 508 585 37,000  Level FlightAware
09:15AM 35.5240 28.5840 129° Southeast 507 583 37,000  Level FlightAware
09:16AM 35.4660 28.6720 129° Southeast 506 582 37,000  Level FlightAware
09:16AM 35.3930 28.7860 128° Southeast 505 581 37,000  Level FlightAware
09:17AM 35.3340 28.8750 129° Southeast 505 581 37,000  Level FlightAware
09:18AM 35.2740 28.9640 130° Southeast 507 583 37,000  Level FlightAware
09:18AM 35.2130 29.0580 128° Southeast 503 579 37,000  Level FlightAware
09:19AM 35.1610 29.1360 129° Southeast 508 585 37,000  Level FlightAware
09:20AM 35.0980 29.2320 129° Southeast 509 586 37,000  Level FlightAware
09:21AM 35.0130 29.3600 129° Southeast 511 588 37,000  Level FlightAware
09:21AM 34.9550 29.4470 129° Southeast 511 588 37,000  Level FlightAware
09:22AM 34.8960 29.5370 129° Southeast 511 588 37,000  Level FlightAware
09:23AM 34.8170 29.6530 130° Southeast 509 586 37,000  Level FlightAware
09:24AM 34.7580 29.7410 129° Southeast 508 585 37,000  Level FlightAware
09:24AM 34.6900 29.8430 129° Southeast 505 581 37,000  Level FlightAware
09:25AM 34.6420 29.9130 130° Southeast 505 581 37,000  Level FlightAware
09:26AM 34.5830 30.0010 129° Southeast 505 581 37,000  Level FlightAware
09:26AM 34.5630 30.0650 111° Southeast 510 587 37,000  Level FlightAware
09:27AM 34.5110 30.1790 119° Southeast 512 589 37,000  Level FlightAware
09:28AM 34.4190 30.3710 120° Southeast 513 590 37,000  Level FlightAware
09:29AM 34.3410 30.5310 121° Southeast 511 588 37,000  Level FlightAware
09:30AM 34.2810 30.6520 121° Southeast 508 585 37,000  Level FlightAware
09:31AM 34.2310 30.7540 121° Southeast 509 586 37,000  Level FlightAware
09:31AM 34.1780 30.8640 120° Southeast 508 585 37,000  Level FlightAware
09:32AM 34.1300 30.9620 121° Southeast 508 585 37,000  Level FlightAware
09:33AM 34.0820 31.0590 121° Southeast 508 585 37,000  Level FlightAware
09:33AM 34.0270 31.1690 121° Southeast 508 585 37,000  Level FlightAware
09:34AM 33.9780 31.2690 121° Southeast 510 587 37,000  Level FlightAware
09:35AM 33.9350 31.3570 120° Southeast 511 588 37,000  Level FlightAware
09:35AM 33.8980 31.4300 121° Southeast 509 586 37,000  Level FlightAware
09:36AM 33.8480 31.5280 122° Southeast 510 587 37,000  Level FlightAware
09:37AM 33.7810 31.6630 121° Southeast 512 589 37,000  Level FlightAware
09:37AM 33.7310 31.7640 121° Southeast 515 593 37,000  Level FlightAware
09:39AM 33.6030 32.0240 121° Southeast 517 595 37,000  Level FlightAware
09:40AM 33.5620 32.1080 120° Southeast 517 595 37,000  Level FlightAware
09:41AM 33.4790 32.2600 123° Southeast 529 609 37,000  Level FlightAware
09:41AM 33.4280 32.3600 121° Southeast 528 608 37,000 -360 Level FlightAware
09:42AM 33.3700 32.4740 121° Southeast 522 601 36,500 -1,080 Descending FlightAware
09:44AM 33.2570 32.6940 122° Southeast 509 586 34,600 -1,560 Descending FlightAware
09:44AM 33.1990 32.8060 122° Southeast 500 575 32,900 -1,380 Descending FlightAware
09:45AM 33.1640 32.8770 120° Southeast 500 575 32,800 -2,220 Descending FlightAware
09:46AM 33.0830 33.0300 122° Southeast 475 547 29,400 -2,880 Descending FlightAware
09:47AM 33.0380 33.1160 122° Southeast 464 534 28,000 -1,020 Descending FlightAware
09:47AM 32.9950 33.2020 121° Southeast 464 534 28,000 -1,980 Level FlightAware
09:48AM 32.9380 33.3070 123° Southeast 434 499 25,100 -2,940 Descending FlightAware
09:49AM 32.9070 33.3650 122° Southeast 426 490 24,100 -1,980 Descending FlightAware
09:50AM 32.8570 33.4610 122° Southeast 412 474 22,500 -2,040 Descending FlightAware
09:50AM 32.8110 33.5500 122° Southeast 398 458 21,100 -1,860 Descending FlightAware
09:51AM 32.7710 33.6230 123° Southeast 389 448 19,900 -1,740 Descending FlightAware
09:52AM 32.7290 33.7030 122° Southeast 377 434 18,700 -1,740 Descending FlightAware
09:52AM 32.6930 33.7720 122° Southeast 368 423 17,500 -2,040 Descending FlightAware
09:53AM 32.6560 33.8410 122° Southeast 373 429 16,000 -1,980 Descending FlightAware
09:54AM 32.6130 33.9200 123° Southeast 363 418 14,700 -1,740 Descending FlightAware
09:54AM 32.5790 33.9850 122° Southeast 353 406 13,600 -1,740 Descending FlightAware
09:55AM 32.5400 34.0580 122° Southeast 347 399 12,300 -1,740 Descending FlightAware
09:56AM 32.5060 34.1220 122° Southeast 341 392 11,200 -1,680 Descending FlightAware
09:57AM 32.4680 34.1810 127° Southeast 330 380 10,100 -1,680 Descending FlightAware
09:57AM 32.4350 34.2200 135° Southeast 323 372 9,300 -1,620 Descending FlightAware
09:58AM 32.4040 34.2570 135° Southeast 319 367 8,500 -1,680 Descending FlightAware
09:58AM 32.3930 34.2690 137° Southeast 318 366 8,200 -1,680 Descending FlightAware
09:58AM 32.3620 34.3060 135° Southeast 315 362 7,400 -1,620 Descending FlightAware
09:58AM 32.3470 34.3230 136° Southeast 313 360 7,000 -780 Descending FlightAware
09:59AM 32.3090 34.3690 134° Southeast 311 358 6,700 -480 Descending FlightAware
10:02AM 32.0979 34.6757 125° Southeast  Level FlightAware Approximate
10:03AM 32.0284 34.8194 125° Southeast  Level FlightAware Approximate
10:04AM 32.0000 34.8667 125° Southeast  Level FlightAware Approximate
10:05AM 32.0095 34.8769 125° Southeast  Level Estimated
10:06AM 32.0095 34.8769 125° Southeast  Level Estimated
10:07AM 32.0095 34.8769 125° Southeast  Level Estimated
10:08AM 32.0095 34.8769 125° Southeast  Level Estimated
10:09AM 32.0095 34.8769 125° Southeast  Level Estimated
10:10AM 32.0095 34.8769 125° Southeast  Level Estimated
10:11AM 32.0095 34.8769 125° Southeast  Level Estimated